White Plains, CT

4:07 PM EDT on July 24, 2017 (GMT -0400)
Westchester County

Weather History for KHPN - March, 2013

Change the Weather History Date:

Wednesday, March 20, 2013

  Actual Average Record
Temperature  
Mean Temperature 34 °F -  
Max Temperature 42 °F 45 °F 71 °F (2012)
Min Temperature 28 °F 29 °F 15 °F (1993)
Degree Days  
Heating Degree Days 30    
Moisture  
Dew Point 17 °F    
Average Humidity 49    
Maximum Humidity 67    
Minimum Humidity 33    
Precipitation  
Precipitation 0.00 in - - ()
Sea Level Pressure  
Sea Level Pressure 29.83 in    
Wind  
Wind Speed 10 mph (West)    
Max Wind Speed 15 mph    
Max Gust Speed 25 mph    
Visibility 10 miles    
Events Snow    
Averages and records for this station are not official NWS values.
T = Trace of Precipitation, MM = Missing Value Source: NWS Daily Summary

Daily Weather History Graph

Daily Weather History Graph

Search for Another Location

Airport or City:

Trip Planner

Search our weather history database for the weather conditions in past years. The results will help you decide how hot, cold, wet, or windy it might be!

Date:

Astronomy

Mar. 20, 2013 Rise Set
Actual Time 6:57 AM EDT 7:07 PM EDT
Civil Twilight 6:30 AM EDT 7:34 PM EDT
Nautical Twilight 5:58 AM EDT 8:06 PM EDT
Astronomical Twilight 5:25 AM EDT 8:39 PM EDT
Moon 12:37 PM EDT (3/20) 2:38 AM EDT (3/20)
Length of Visible Light 13h 04m
Length of Day
12h 09m
First Quarter, 59% of the Moon is Illuminated
Mar 20
First Quarter
Mar 27
Full
Apr 3
Last Quarter
Apr 10
New
Apr 18
First Quarter

Hourly Weather History & Observations

Time (EDT) Temp. Windchill Dew Point Humidity Pressure Visibility Wind Dir Wind Speed Gust Speed Precip Events Conditions
12:56 AM 33.1 °F 24.9 °F 19.9 °F 59% 29.81 in 10.0 mi NW 10.4 mph - N/A   Clear
1:56 AM 32.0 °F 22.5 °F 19.0 °F 59% 29.83 in 10.0 mi WNW 12.7 mph 20.7 mph N/A   Partly Cloudy
2:56 AM 30.9 °F 20.7 °F 18.0 °F 59% 29.83 in 10.0 mi WNW 13.8 mph - N/A   Partly Cloudy
3:56 AM 30.0 °F 26.5 °F 18.0 °F 61% 29.84 in 10.0 mi West 3.5 mph - N/A   Partly Cloudy
4:56 AM 28.9 °F 25.2 °F 19.0 °F 67% 29.85 in 10.0 mi West 3.5 mph - N/A   Clear
5:56 AM 30.0 °F 23.2 °F 16.0 °F 56% 29.86 in 10.0 mi West 6.9 mph - N/A   Clear
6:56 AM 30.0 °F 21.7 °F 17.1 °F 59% 29.86 in 10.0 mi WSW 9.2 mph - N/A   Mostly Cloudy
7:56 AM 30.9 °F 23.5 °F 17.1 °F 57% 29.86 in 10.0 mi West 8.1 mph 18.4 mph N/A   Mostly Cloudy
8:56 AM 32.0 °F 26.4 °F 17.1 °F 54% 29.86 in 10.0 mi West 5.8 mph 17.3 mph N/A   Scattered Clouds
9:56 AM 34.0 °F 24.6 °F 18.0 °F 52% 29.86 in 10.0 mi WNW 13.8 mph 19.6 mph N/A   Mostly Cloudy
10:56 AM 35.1 °F 26.4 °F 15.1 °F 44% 29.86 in 10.0 mi West 12.7 mph 25.3 mph N/A   Mostly Cloudy
11:56 AM 36.0 °F 26.7 °F 16.0 °F 44% 29.86 in 10.0 mi WNW 15.0 mph 25.3 mph N/A   Mostly Cloudy
12:56 PM 37.9 °F 29.6 °F 16.0 °F 41% 29.84 in 10.0 mi WNW 13.8 mph 20.7 mph N/A   Mostly Cloudy
1:56 PM 37.9 °F 30.5 °F 16.0 °F 41% 29.83 in 10.0 mi West 11.5 mph 20.7 mph N/A   Scattered Clouds
2:56 PM 39.9 °F 32.1 °F 16.0 °F 38% 29.80 in 10.0 mi West 13.8 mph 18.4 mph N/A   Scattered Clouds
3:56 PM 39.9 °F 33.9 °F 16.0 °F 38% 29.80 in 10.0 mi WSW 9.2 mph 21.9 mph N/A   Mostly Cloudy
4:56 PM 41.0 °F 33.5 °F 14.0 °F 33% 29.79 in 10.0 mi West 13.8 mph 21.9 mph N/A   Mostly Cloudy
5:56 PM 41.0 °F 35.2 °F 14.0 °F 33% 29.79 in 10.0 mi West 9.2 mph 18.4 mph N/A   Mostly Cloudy
6:56 PM 39.9 °F 37.8 °F 15.1 °F 36% 29.80 in 10.0 mi WSW 3.5 mph - N/A   Scattered Clouds
7:56 PM 39.0 °F 32.8 °F 16.0 °F 39% 29.80 in 10.0 mi West 9.2 mph - N/A   Partly Cloudy
8:56 PM 37.0 °F 33.3 °F 17.1 °F 44% 29.81 in 10.0 mi WNW 4.6 mph - N/A   Clear
9:56 PM 35.1 °F 32.2 °F 19.9 °F 54% 29.82 in 10.0 mi NW 3.5 mph - N/A   Overcast
10:56 PM 36.0 °F 30.3 °F 19.9 °F 52% 29.83 in 10.0 mi NNW 6.9 mph - N/A   Overcast
11:56 PM 35.1 °F 28.6 °F 21.0 °F 57% 29.83 in 9.0 mi WNW 8.1 mph - 0.00 in Snow Light Snow